Weather History for Phuket, Thailand

Change the Weather History Date:

Friday, September 13, 2013

  Actual Average Record
Temperature  
Mean Temperature 80 °F -  
Max Temperature 87 °F 87 °F 96 °F (1997)
Min Temperature 74 °F 76 °F 41 °F (2008)
Cooling Degree Days 16    
Growing Degree Days 30 (Base 50)    
Moisture  
Dew Point 74 °F    
Average Humidity 77    
Maximum Humidity 89    
Minimum Humidity 66    
Precipitation  
Precipitation 0.03 in 0.51 in - ()
Sea Level Pressure  
Sea Level Pressure 29.84 in    
Wind  
Wind Speed 7 mph ()    
Max Wind Speed 18 mph    
Max Gust Speed -    
Visibility 5.5 miles    
Events Rain    
Averages and records for this station are not official NWS values.
T = Trace of Precipitation, MM = Missing Value Source: Averaged Metar Reports

Daily Weather History Graph

Daily Weather History Graph

Search for Another Location

Airport:

Trip Planner

Search our weather history database for the weather conditions in past years. The results will help you decide how hot, cold, wet, or windy it might be!

Date:

Astronomy

Sep. 13, 2013 Rise Set
Actual Time 6:17 AM ICT 6:28 PM ICT
Civil Twilight 5:56 AM ICT 6:48 PM ICT
Nautical Twilight 5:31 AM ICT 7:13 PM ICT
Astronomical Twilight 5:07 AM ICT 7:37 PM ICT
Moon 12:59 PM ICT (9/13) 12:05 AM ICT (9/13)
Length of Visible Light 12h 52m
Length of Day
12h 10m
First Quarter, 56% of the Moon is Illuminated
Sep 13
First Quarter
Sep 19
Full
Sep 27
Last Quarter
Oct 5
New
Oct 12
First Quarter

Hourly Weather History & Observations

Time (ICT) Temp. Heat Index Dew Point Humidity Pressure Visibility Wind Dir Wind Speed Gust Speed Precip Events Conditions
12:00 AM 78.8 °F - 73.4 °F 83% 29.89 in 5.0 mi SW 8.1 mph - N/A   Mostly Cloudy
1:00 AM 78.8 °F - 73.4 °F 83% 29.86 in 5.0 mi West 10.4 mph - N/A   Mostly Cloudy
2:00 AM 77.0 °F - 73.4 °F 89% 29.86 in 4.3 mi WSW 5.8 mph - N/A   Mostly Cloudy
2:30 AM 77.0 °F - 71.6 °F 83% 29.86 in 3.7 mi WSW 12.7 mph - N/A Rain Rain
3:30 AM 77.0 °F - 73.4 °F 89% 29.83 in 4.3 mi WSW 5.8 mph - N/A   Mostly Cloudy
4:00 AM 78.8 °F - 73.4 °F 83% 29.83 in 5.0 mi SW 3.5 mph - N/A   Mostly Cloudy
4:30 AM 78.8 °F - 73.4 °F 83% 29.83 in 5.0 mi WSW 9.2 mph - N/A   Mostly Cloudy
5:00 AM 78.8 °F - 73.4 °F 83% 29.83 in 3.1 mi SW 18.4 mph - N/A Rain Rain
5:30 AM 78.8 °F - 73.4 °F 83% 29.83 in 4.3 mi WSW 13.8 mph - N/A   Mostly Cloudy
6:00 AM 78.8 °F - 73.4 °F 83% 29.83 in 5.0 mi SW 11.5 mph - N/A   Mostly Cloudy
6:30 AM 78.8 °F - 73.4 °F 83% 29.83 in 5.6 mi SW 8.1 mph - N/A   Mostly Cloudy
7:00 AM 80 °F - 75 °F 81% 29.81 in 6 mi Calm Calm - -   Partly Cloudy
7:00 AM 78.8 °F - 73.4 °F 83% 29.86 in 6.2 mi WSW 8.1 mph - N/A   Mostly Cloudy
7:30 AM 80.6 °F 85.4 °F 73.4 °F 79% 29.86 in 6.2 mi WSW 5.8 mph - N/A   Mostly Cloudy
8:00 AM 80.6 °F 85.4 °F 73.4 °F 79% 29.89 in 6.2 mi WSW 6.9 mph - N/A   Mostly Cloudy
8:30 AM 80.6 °F 85.4 °F 73.4 °F 79% 29.89 in 6.2 mi WSW 4.6 mph - N/A   Mostly Cloudy
9:00 AM 80.6 °F 85.4 °F 73.4 °F 79% 29.92 in 5.6 mi Variable 4.6 mph - N/A   Mostly Cloudy
9:30 AM 82.4 °F 89.5 °F 75.2 °F 79% 29.92 in 5.6 mi Variable 2.3 mph - N/A   Mostly Cloudy
10:00 AM 82.4 °F 89.5 °F 75.2 °F 79% 29.92 in 5.6 mi WSW 4.6 mph - N/A   Mostly Cloudy
10:30 AM 82.4 °F 88.2 °F 73.4 °F 74% 29.89 in 5.6 mi WSW 4.6 mph - N/A   Mostly Cloudy
11:00 AM 82.4 °F 88.2 °F 73.4 °F 74% 29.89 in 5.6 mi Variable 3.5 mph - N/A   Mostly Cloudy
11:30 AM 82.4 °F 89.5 °F 75.2 °F 79% 29.89 in 5.6 mi Variable 2.3 mph - N/A   Mostly Cloudy
12:00 PM 82.4 °F 88.2 °F 73.4 °F 74% 29.89 in 5.6 mi WSW 4.6 mph - N/A   Mostly Cloudy
12:30 PM 84.2 °F 90.9 °F 73.4 °F 70% 29.86 in 5.6 mi West 8.1 mph - N/A   Mostly Cloudy
1:00 PM 85 °F - 75 °F 66% 29.81 in 6 mi WNW 6.9 mph - -   Scattered Clouds
1:00 PM 86.0 °F 93.4 °F 73.4 °F 66% 29.83 in 5.6 mi West 12.7 mph - N/A   Mostly Cloudy
1:30 PM 86.0 °F 93.4 °F 73.4 °F 66% 29.83 in 5.6 mi West 11.5 mph - N/A   Mostly Cloudy
2:00 PM 84.2 °F 90.9 °F 73.4 °F 70% 29.83 in 6.2 mi West 11.5 mph - N/A   Mostly Cloudy
2:30 PM 86.0 °F 93.4 °F 73.4 °F 66% 29.80 in 6.2 mi West 10.4 mph - N/A   Mostly Cloudy
3:00 PM 86.0 °F 93.4 °F 73.4 °F 66% 29.80 in 6.2 mi West 12.7 mph - N/A   Mostly Cloudy
3:30 PM 86.0 °F 93.4 °F 73.4 °F 66% 29.77 in 6.2 mi WSW 10.4 mph - N/A   Mostly Cloudy
4:00 PM 86.0 °F 93.4 °F 73.4 °F 66% 29.77 in 6.2 mi WSW 9.2 mph - N/A   Mostly Cloudy
4:30 PM 82.4 °F 88.2 °F 73.4 °F 74% 29.77 in 6.2 mi SW 8.1 mph - N/A   Mostly Cloudy
5:00 PM 84.2 °F 90.9 °F 73.4 °F 70% 29.77 in 6.2 mi WSW 6.9 mph - N/A   Mostly Cloudy
5:30 PM 84.2 °F 90.9 °F 73.4 °F 70% 29.80 in 5.6 mi WSW 4.6 mph - N/A   Mostly Cloudy
6:00 PM 84.2 °F 90.9 °F 73.4 °F 70% 29.80 in 5.6 mi Variable 3.5 mph - N/A   Mostly Cloudy
6:30 PM 82.4 °F 88.2 °F 73.4 °F 74% 29.80 in 5.6 mi SW 4.6 mph - N/A   Mostly Cloudy
7:00 PM 84 °F - 75 °F 68% 29.78 in 6 mi Calm Calm - -   Scattered Clouds
7:00 PM 80.6 °F 85.4 °F 73.4 °F 79% 29.80 in 5.6 mi SW 4.6 mph - N/A   Mostly Cloudy
7:30 PM 80.6 °F 85.4 °F 73.4 °F 79% 29.83 in 5.6 mi SW 3.5 mph - N/A   Mostly Cloudy
8:00 PM 80.6 °F 85.4 °F 73.4 °F 79% 29.83 in 5.6 mi Variable 2.3 mph - N/A   Mostly Cloudy
8:30 PM 80.6 °F 85.4 °F 73.4 °F 79% 29.86 in 5.6 mi SW 4.6 mph - N/A   Mostly Cloudy
9:00 PM 82.4 °F 88.2 °F 73.4 °F 74% 29.86 in 5.6 mi WSW 3.5 mph - N/A   Mostly Cloudy
9:30 PM 80.6 °F 85.4 °F 73.4 °F 79% 29.86 in 5.6 mi SSW 3.5 mph - N/A   Mostly Cloudy
10:00 PM 78.8 °F - 73.4 °F 83% 29.89 in 5.6 mi SSW 2.3 mph - N/A   Mostly Cloudy
10:30 PM 80.6 °F 85.4 °F 73.4 °F 79% 29.89 in 5.6 mi Calm Calm - N/A   Mostly Cloudy
11:00 PM 80.6 °F 85.4 °F 73.4 °F 79% 29.89 in 5.6 mi WSW 4.6 mph - N/A   Mostly Cloudy
11:30 PM 80.6 °F 85.4 °F 73.4 °F 79% 29.89 in 5.6 mi Variable 2.3 mph - N/A   Mostly Cloudy